CDT,Max TemperatureF,Mean TemperatureF,Min TemperatureF,Max Dew PointF,MeanDew PointF,Min DewpointF,Max Humidity, Mean Humidity, Min Humidity, Max Sea Level PressureIn, Mean Sea Level PressureIn, Min Sea Level PressureIn, Max VisibilityMiles, Mean VisibilityMiles, Min VisibilityMiles, Max Wind SpeedMPH, Mean Wind SpeedMPH, Max Gust SpeedMPH,PrecipitationIn, CloudCover, Events, WindDirDegrees
2013-3-1,29,25,21,27,21,17,92,80,68,30.29,30.18,30.10,10,7,2,23,12,26,0.01,8,Snow,34
2013-3-2,27,16,5,16,11,5,91,73,55,30.30,30.27,30.24,10,10,9,12,7,12,0.00,1,,319
2013-3-3,31,17,3,14,8,0,100,73,46,30.22,30.15,30.08,10,6,2,10,5,13,0.00,0,,112
2013-3-4,34,29,24,25,21,12,88,72,55,30.10,29.99,29.93,10,7,1,23,16,32,0.05,6,Snow,104
2013-3-5,31,29,27,27,26,22,92,85,78,30.17,29.94,29.88,10,2,0,24,13,28,0.22,8,Fog-Snow,338
2013-3-6,28,24,20,22,19,16,84,79,74,30.39,30.32,30.15,10,10,8,22,10,26,T,7,,323
2013-3-7,33,26,18,22,19,15,91,80,69,30.44,30.40,30.36,10,7,3,13,5,15,0.00,5,,130
2013-3-8,38,29,19,30,24,16,91,78,64,30.45,30.37,30.24,8,6,3,21,12,23,0.00,0,,124
2013-3-9,41,38,35,39,34,29,92,84,75,30.21,29.96,29.77,6,4,1,23,14,28,0.37,8,Rain-Snow,147
2013-3-10,45,40,34,43,40,34,100,95,89,29.76,29.67,29.57,4,1,0,24,8,30,1.01,8,Fog-Rain,115
2013-3-11,34,32,29,34,30,22,100,88,75,29.90,29.69,29.62,10,3,0,26,14,31,0.07,8,Fog-Rain-Snow,294
2013-3-12,34,29,24,29,25,18,92,81,69,30.15,30.00,29.89,10,6,0,32,17,40,0.03,6,Fog-Snow,272
2013-3-13,34,28,21,22,17,14,88,68,47,30.40,30.33,30.15,10,10,8,23,13,29,0.00,0,,307
2013-3-14,45,34,22,30,25,19,92,73,53,30.37,30.21,30.09,10,9,8,22,8,25,T,2,,139
2013-3-15,45,36,27,36,31,27,100,83,65,30.07,29.88,29.72,7,4,1,16,6,18,0.00,1,,79
2013-3-16,37,33,29,34,29,23,100,82,64,30.17,29.94,29.71,10,5,0,16,10,20,T,8,Fog,11
2013-3-17,36,31,25,27,22,15,78,67,56,30.22,30.11,29.94,10,10,9,20,14,24,0.00,3,,76
2013-3-18,34,27,19,31,26,12,100,84,68,29.93,29.77,29.67,10,4,0,37,18,44,0.09,8,Fog-Rain-Snow,174
2013-3-19,32,24,15,20,14,7,75,67,58,30.20,30.11,29.93,10,10,10,28,20,36,0.00,1,,282
2013-3-20,25,19,12,15,8,4,77,66,54,30.24,30.19,30.14,10,10,10,31,20,38,0.00,1,,306
2013-3-21,32,21,9,16,10,5,83,63,43,30.15,30.10,30.05,10,10,10,13,6,16,0.00,0,,343
2013-3-22,40,27,14,22,17,12,88,64,40,30.11,30.08,30.04,10,10,8,10,4,,0.00,1,,12
2013-3-23,43,33,22,23,20,16,81,58,34,30.13,30.09,30.03,10,10,7,18,8,22,T,3,,59
2013-3-24,32,31,29,29,27,23,100,93,85,30.03,29.86,29.75,5,1,0,22,15,29,0.15,8,Fog-Snow,18
2013-3-25,36,32,28,27,24,19,85,75,64,30.18,29.99,29.84,10,9,2,22,14,26,0.00,7,Snow,336
2013-3-26,38,32,25,28,25,21,88,74,59,30.33,30.26,30.19,10,10,10,18,10,24,0.00,6,,307
2013-3-27,44,36,28,27,24,21,92,67,41,30.38,30.35,30.32,10,10,6,10,5,18,0.00,2,,301
2013-3-28,52,38,23,31,27,23,88,62,35,30.39,30.34,30.28,10,9,4,10,3,18,0.00,2,,63
2013-3-29,57,43,28,33,30,26,85,59,32,30.33,30.28,30.22,10,8,4,9,4,13,0.00,1,,89
2013-3-30,55,45,34,44,37,29,93,74,54,30.22,30.02,29.88,9,6,4,23,12,30,T,4,,184
2013-3-31,54,43,32,45,38,24,100,74,48,30.01,29.87,29.84,10,4,0,26,14,32,0.00,5,Fog,290